Regional Weather Roundup
Issued by NWS

Home | Current Version | Previous Version | Text Only | Print | Product List | Glossary On
Versions: 1 2 3 4 5 6 7 8 9 10 11 12 13 14 15 16 17 18 19 20 21 22 23 24 25 26 27 28 29 30 31 32 33 34 35 36 37 38 39 40 41 42 43 44 45 46 47 48 49 50
000
ASUS43 KLSX 230807
RWRMO

WEATHER SUMMARY FOR MISSOURI
NATIONAL WEATHER SERVICE SPRINGFIELD MO
200 AM CST THU NOV 23 2017

NOTE: "FAIR" INDICATES FEW OR NO CLOUDS BELOW 12,000 FEET WITH NO
       SIGNIFICANT WEATHER AND/OR OBSTRUCTIONS TO VISIBILITY.
       CURRENT SKY AND/OR WEATHER CONDITIONS ARE NOT AVAILABLE FOR
       CHILLICOTHE AND FARMINGTON.

MOZ001>031-035>038-043-044-053-054-230900-
...NORTHERN AND WESTERN MISSOURI...

CITY           SKY/WX    TMP DP  RH WIND       PRES   REMARKS
KANSAS CTY INT CLEAR     36  20  52 S12       30.07F WCI  28
KANSAS C DTWN  CLEAR     37  20  50 S7        30.10F
LEE`S SUMMIT   CLEAR     34  21  59 SW12      30.10F WCI  25
ST JOSEPH      CLEAR     34  21  59 S6        30.06F WCI  29
CHILLICOTHE      N/A     32  21  64 S6        30.09F WCI  26
KIRKSVILLE     CLOUDY    35  20  54 SW9       30.09F WCI  28

$$
MOZ066>068-077>081-088>096-101>105-230900-
...SOUTHWEST MISSOURI...

CITY           SKY/WX    TMP DP  RH WIND       PRES   REMARKS
SPRINGFIELD    PTCLDY    33  23  66 S8        30.16F WCI  26
JOPLIN         PTCLDY    33  25  72 S6        30.17F WCI  28
BRANSON        CLOUDY    37  14  38 CALM      30.19R

$$
MOZ032>034-039>042-045>050-055>058-069>072-230900-
...CENTRAL MISSOURI...

CITY           SKY/WX    TMP DP  RH WIND       PRES   REMARKS
COLUMBIA       CLEAR     29  18  63 S9        30.15F WCI  20
JEFFERSON CITY CLEAR     33  18  53 CALM      30.19R
ROLLA          CLOUDY    29  16  58 S6        30.17S WCI  23
SEDALIA        CLEAR     30  24  78 S7        30.15F WCI  23
WHITEMAN AFB   CLEAR     29  22  73 S7        30.09F WCI  22
WARRENSBURG    CLEAR     32  23  69 S7        30.13F WCI  26
OSAGE BEACH    CLEAR     29  20  69 CALM      30.18S

$$
MOZ051-052-059>065-230900-
...EAST CENTRAL MISSOURI...

CITY           SKY/WX    TMP DP  RH WIND       PRES   REMARKS
ST LOUIS INTL  MOCLDY    33  21  61 S5        30.20F WCI  29
SPIRIT OF STL  PTCLDY    28  22  78 CALM      30.19F
ST CHARLES     PTCLDY    29  23  78 E3        30.19F

$$
MOZ072>076-082>087-097>100-106>115-230900-
...SOUTH CENTRAL AND SOUTHEAST MISSOURI...

CITY           SKY/WX    TMP DP  RH WIND       PRES   REMARKS
CAPE GIRARDEAU CLOUDY    27  23  85 CALM      30.22F
FARMINGTON     CLOUDY    29  22  75 S5        30.20F WCI  24
POPLAR BLUFF   PTCLDY    27  24  89 CALM      30.23S
WEST PLAINS    CLOUDY    28  20  71 CALM      30.19F

$$



USA.gov is the U.S. government's official web portal to all federal, state and local government web resources and services.